Location: Im Fang
(46.6019°N, 7.2397°E)
Time: 22:34:23
(UTC+00:00)

SL-16 R/B - Pass Details

Date: 08 December 2019
Orbit: 840 x 849 km, 71.0° (Epoch: 22 January)

Event Time Altitude Azimuth Distance (km) Brightness Sun altitude
Exits shadow 04:46:36 31° 227° (SW) 1,454 3.1 -22.3°
Drops below altitude 10° 04:50:20 10° 191° (S) 2,465 4.6 -21.7°
Sets 04:52:57 0° 182° (S) 3,395 5.5 -21.2°
